Temp
45 43 41 38 38 37 36 36 36 37 37 37 38 38 38 37 38 36 36 37 36 35 35 36 35 36 36 37 38 38 38 38 33 35 40 46 45 44 47 45 46 45 45
38 38 37 36 36 35 35 36 36 36 36 37 37 37 37 37 36 35 35 35 34 33 33 33 33 37 34 35 35 34 35 36 34 33 38 38 41 44 42 40 43 46 45
37 35 35 35 35 34 34 35 35 34 34 34 35 35 35 35 35 35 35 34 33 33 33 32 33 32 31 32 33 33 34 36 34 34 35 38 39 43 40 39 38 39 43
36 35 33 33 34 33 34 34 33 34 33 33 33 33 33 34 35 35 34 32 31 32 32 31 31 31 31 30 31 33 33 33 32 29 31 33 36 40 41 40 36 36 37
36 35 33 34 34 34 33 32 32 32 32 32 32 31 31 33 36 33 32 30 29 29 30 30 31 32 35 34 31 29 30 31 28 27 27 28 31 35 36 38 37 32 33
35 34 35 34 34 32 31 31 31 30 29 30 29 30 30 33 34 34 33 29 29 28 27 28 29 31 31 33 33 33 32 28 27 27 26 25 27 32 36 38 37 33 26
34 35 34 34 32 31 31 30 29 28 28 27 28 29 28 28 33 33 33 30 28 27 27 27 27 30 29 29 30 31 31 32 31 28 26 26 26 29 33 34 34 34 33
32 33 33 32 31 30 30 29 27 27 26 26 27 28 27 29 32 32 32 28 27 27 27 26 26 26 27 28 28 27 28 29 29 30 29 29 30 31 33 36 36 35 36
32 32 31 32 30 29 28 27 27 26 25 26 28 27 27 27 31 31 30 27 27 25 27 27 27 27 29 30 26 25 25 26 32 33 33 34 34 35 35 33 33 33 31
32 32 31 31 30 28 27 27 27 25 28 28 28 27 28 27 29 30 29 28 23 24 25 26 28 27 28 28 26 25 23 25 26 27 28 30 32 31 33 33 35 32 32
32 31 31 30 30 29 27 26 25 25 26 24 25 25 27 27 26 29 29 27 24 23 23 23 25 28 28 29 29 27 26 28 27 26 26 26 28 28 30 35 37 35 33
30 30 30 29 30 29 26 25 26 24 22 22 23 24 24 24 27 27 28 28 28 24 22 23 25 27 28 30 30 32 32 29 27 25 24 24 25 26 30 34 36 35 36
29 28 28 29 30 28 25 23 22 22 21 21 23 21 21 24 24 26 27 28 27 24 24 25 27 27 27 28 30 33 30 23 24 23 23 24 26 28 31 33 33 33 33
28 27 28 27 26 25 25 24 19 20 20 22 22 19 20 21 22 23 24 23 25 23 22 20 22 25 25 28 29 31 32 28 26 25 25 26 29 31 30 31 30 30 30
28 28 27 27 24 22 24 21 23 23 22 22 20 20 19 18 21 26 25 23 22 21 19 17 18 19 20 23 25 28 28 28 29 30 28 27 29 30 30 31 30 29 28
27 26 23 22 20 20 17 18 24 25 27 27 27 24 24 26 27 27 26 26 24 23 15 13 14 15 17 19 22 24 26 25 26 27 27 27 28 29 29 30 30 29 28
23 25 21 21 19 17 16 16 13 20 25 25 25 26 26 26 26 26 25 24 21 19 12 12 13 14 16 18 20 21 24 25 27 25 25 25 25 26 26 27 28 28 27
23 20 18 15 11 12 9 14 14 12 13 15 21 23 24 24 25 24 23 19 13 14 13 12 11 13 14 16 18 18 24 24 23 23 23 24 24 24 23 24 25 25 25
23 17 17 15 15 15 16 15 15 13 12 14 16 17 18 22 22 22 20 13 11 11 12 12 13 14 14 15 16 17 18 21 23 22 21 22 21 22 21 22 22 23 24
22 20 17 17 16 16 15 14 13 12 12 12 13 13 15 15 13 13 12 12 11 12 12 12 14 14 13 14 15 15 16 17 19 22 21 20 20 21 20 20 20 20 21
19 18 16 18 17 16 15 14 13 11 12 12 12 13 13 13 12 12 13 13 13 13 12 13 13 13 13 13 14 13 14 15 17 19 20 20 20 19 19 19 19 19 20
17 16 16 15 17 16 16 15 13 11 12 12 12 13 10 12 12 11 12 12 12 14 15 14 13 13 13 13 13 11 12 14 15 15 17 19 19 20 18 18 17 17 17
16 15 15 15 16 15 14 12 11 10 12 11 11 11 11 10 9 9 9 10 12 13 14 14 13 13 14 13 13 13 12 14 15 15 14 15 17 17 17 16 16 16 15
15 14 15 14 14 14 12 8 9 9 11 10 6 8 9 9 7 7 8 9 10 11 12 12 12 13 13 13 12 13 14 14 14 14 13 14 15 15 15 15 15 14 14
12 9 10 12 12 11 7 9 7 6 6 7 5 7 9 8 8 7 7 7 8 8 9 9 11 12 12 11 11 12 11 10 7 7 11 13 13 12 13 13 13 14 12
15 15 13 11 10 9 7 5 5 4 5 5 5 3 6 7 7 6 6 7 7 7 6 7 9 10 10 10 11 12 10 7 5 3 5 9 10 10 11 11 11 12 12
MSLP
1028.91 1029.30 1029.51 1029.66 1029.64 1029.59 1029.61 1029.49 1029.30 1028.99 1028.71 1028.42 1028.06 1027.65 1027.24 1026.85 1026.45 1026.17 1025.88 1025.45 1025.25 1025.02 1024.70 1024.25 1023.82 1023.35 1022.71 1022.15 1021.58 1020.98 1020.31 1019.76 1018.62 1017.77 1017.42 1015.86 1014.90 1014.59 1014.30 1014.10 1014.00 1014.09 1014.19
1029.57 1029.83 1029.96 1029.96 1029.92 1029.84 1029.76 1029.59 1029.45 1029.25 1028.87 1028.57 1028.19 1027.75 1027.27 1026.89 1026.54 1026.25 1025.99 1025.71 1025.43 1025.03 1024.64 1024.15 1023.57 1023.00 1022.43 1021.82 1021.17 1020.44 1019.81 1019.22 1018.73 1017.49 1016.61 1016.09 1015.56 1014.23 1013.86 1013.74 1013.71 1013.56 1013.59
1029.85 1030.08 1030.28 1030.18 1030.10 1029.94 1029.81 1029.78 1029.55 1029.22 1028.96 1028.70 1028.32 1028.04 1027.65 1027.20 1026.68 1026.28 1025.95 1025.67 1025.49 1025.06 1024.54 1023.98 1023.23 1022.80 1022.01 1021.29 1020.67 1019.91 1019.11 1018.39 1017.95 1017.21 1016.14 1015.73 1015.10 1014.16 1013.40 1013.19 1013.12 1013.21 1013.08
1029.95 1030.17 1030.32 1030.30 1030.25 1030.01 1029.83 1029.71 1029.57 1029.34 1029.18 1028.82 1028.55 1028.22 1027.81 1027.27 1026.58 1026.21 1025.97 1025.76 1025.36 1024.86 1024.41 1023.88 1023.20 1022.47 1021.64 1021.05 1020.25 1019.42 1018.78 1017.89 1017.36 1017.04 1016.14 1015.53 1014.81 1013.46 1013.10 1012.61 1012.86 1012.70 1012.78
1029.86 1030.08 1030.27 1030.28 1030.27 1030.02 1029.83 1029.75 1029.63 1029.50 1029.28 1029.05 1028.67 1028.35 1027.89 1027.24 1026.51 1026.31 1026.06 1025.74 1025.24 1024.59 1024.07 1023.52 1022.80 1021.99 1021.04 1020.35 1019.79 1018.95 1018.38 1017.51 1016.87 1016.50 1015.86 1015.41 1014.51 1013.54 1012.56 1012.36 1012.05 1012.21 1012.12
1029.89 1030.19 1030.32 1030.21 1030.28 1030.16 1029.93 1029.93 1029.85 1029.69 1029.58 1029.26 1028.93 1028.51 1027.94 1027.38 1026.93 1026.38 1026.07 1025.52 1025.04 1024.49 1023.69 1022.93 1022.22 1021.33 1020.48 1019.66 1018.96 1018.40 1017.86 1017.14 1016.31 1015.56 1015.12 1014.86 1014.16 1013.40 1012.67 1011.77 1011.70 1011.97 1011.97
1030.09 1030.34 1030.39 1030.42 1030.38 1030.26 1030.18 1030.15 1030.08 1029.93 1029.75 1029.42 1029.07 1028.56 1027.97 1027.53 1026.89 1026.35 1025.88 1025.38 1024.84 1024.24 1023.55 1022.59 1021.54 1020.65 1019.80 1018.92 1018.04 1017.34 1016.62 1016.12 1015.59 1015.21 1014.27 1013.97 1013.66 1013.18 1012.38 1011.25 1010.60 1010.81 1010.64
1030.39 1030.43 1030.50 1030.54 1030.53 1030.43 1030.35 1030.36 1030.22 1030.01 1029.80 1029.39 1028.98 1028.47 1027.88 1027.44 1026.86 1026.18 1025.59 1025.05 1024.49 1023.79 1023.00 1022.12 1021.13 1019.87 1018.87 1018.01 1017.00 1015.91 1015.06 1014.46 1014.08 1013.79 1013.21 1012.77 1012.58 1012.33 1011.81 1010.65 1010.22 1009.74 1009.84
1030.48 1030.55 1030.62 1030.51 1030.52 1030.51 1030.39 1030.33 1030.13 1029.96 1029.71 1029.28 1028.90 1028.35 1027.75 1027.32 1026.78 1026.05 1025.33 1024.63 1023.85 1023.04 1022.16 1021.24 1020.28 1018.76 1017.67 1016.94 1015.94 1014.59 1013.39 1012.33 1012.28 1012.04 1011.70 1011.37 1011.25 1011.04 1010.86 1010.60 1009.43 1009.14 1008.84
1030.32 1030.54 1030.53 1030.39 1030.39 1030.44 1030.28 1030.22 1030.11 1029.96 1029.67 1029.28 1028.83 1028.26 1027.67 1027.15 1026.64 1025.94 1025.23 1024.38 1023.50 1022.48 1021.19 1020.13 1019.00 1017.87 1016.38 1015.13 1013.96 1012.51 1011.00 1009.73 1010.44 1010.32 1010.24 1010.06 1010.06 1009.80 1009.60 1009.05 1008.48 1008.09 1008.18
1030.22 1030.51 1030.45 1030.31 1030.32 1030.32 1030.21 1030.18 1030.02 1029.83 1029.56 1029.20 1028.68 1027.94 1027.43 1026.97 1026.43 1025.67 1025.01 1024.15 1023.40 1022.12 1021.06 1019.40 1017.96 1016.38 1014.77 1012.77 1010.76 1009.09 1007.51 1007.00 1007.84 1008.51 1008.63 1008.72 1008.79 1008.68 1008.24 1007.35 1006.95 1007.10 1007.18
1030.17 1030.36 1030.38 1030.37 1030.34 1030.20 1030.06 1029.94 1029.83 1029.70 1029.36 1028.86 1028.21 1027.49 1027.13 1026.75 1026.15 1025.45 1024.72 1023.81 1022.99 1022.17 1020.89 1019.47 1017.84 1015.81 1013.84 1011.43 1008.97 1006.74 1005.16 1004.93 1005.77 1006.63 1007.15 1007.24 1007.27 1007.15 1006.83 1006.14 1005.77 1005.94 1006.19
1030.10 1030.17 1030.23 1030.27 1030.29 1030.09 1029.82 1029.74 1029.69 1029.51 1029.17 1028.58 1027.94 1027.28 1026.73 1026.23 1025.73 1025.09 1024.25 1023.16 1022.41 1021.56 1020.88 1019.54 1017.75 1015.66 1013.60 1011.15 1008.70 1006.36 1005.27 1005.03 1005.31 1005.91 1006.20 1006.17 1006.09 1005.88 1005.75 1005.33 1005.24 1005.43 1005.73
1029.92 1029.98 1030.03 1030.14 1030.21 1030.00 1029.77 1029.58 1029.56 1029.43 1028.94 1028.32 1027.72 1027.15 1026.42 1025.79 1025.22 1024.43 1023.50 1022.43 1021.70 1021.09 1020.27 1019.06 1017.70 1016.06 1014.12 1012.05 1009.43 1007.84 1006.29 1005.70 1005.56 1005.58 1005.57 1005.41 1005.12 1004.63 1004.56 1004.82 1005.14 1005.52 1005.96
1029.68 1029.73 1029.95 1030.03 1030.22 1029.99 1029.75 1029.41 1029.28 1029.15 1028.76 1028.02 1027.61 1026.97 1026.31 1025.57 1025.06 1024.28 1023.39 1022.46 1021.82 1021.36 1020.42 1019.47 1018.03 1016.39 1014.61 1012.77 1011.09 1009.63 1008.38 1007.16 1006.29 1005.77 1005.48 1005.23 1004.98 1004.86 1004.87 1004.93 1005.24 1005.52 1005.67
1029.49 1029.65 1029.91 1030.07 1030.25 1030.12 1029.87 1029.38 1029.26 1028.84 1028.29 1027.84 1027.25 1026.71 1026.10 1025.66 1024.89 1024.18 1023.49 1022.82 1022.43 1021.76 1021.05 1020.31 1019.05 1017.84 1016.39 1014.85 1013.24 1011.63 1010.46 1009.39 1008.43 1007.55 1006.97 1006.50 1006.00 1005.56 1005.27 1005.17 1005.18 1005.25 1005.37
1029.35 1029.51 1029.79 1029.96 1030.15 1030.22 1029.88 1029.74 1029.42 1028.42 1028.21 1027.76 1027.22 1026.61 1026.07 1025.51 1024.76 1024.10 1023.52 1022.95 1022.81 1022.17 1021.67 1020.79 1019.84 1018.74 1017.56 1016.21 1014.82 1013.44 1011.98 1011.19 1010.24 1009.30 1008.66 1008.09 1007.50 1007.01 1006.57 1006.21 1005.86 1005.58 1005.40
1029.18 1029.40 1029.57 1029.83 1030.12 1030.15 1030.02 1029.70 1029.52 1029.06 1028.46 1027.75 1027.23 1026.66 1026.19 1025.48 1024.71 1024.23 1023.77 1023.51 1022.98 1022.34 1021.83 1021.06 1020.20 1019.19 1018.29 1017.20 1015.97 1014.75 1013.21 1012.08 1011.35 1010.69 1010.03 1009.46 1008.88 1008.31 1007.83 1007.36 1006.71 1006.13 1005.71
1028.93 1029.24 1029.26 1029.53 1029.74 1029.74 1029.52 1029.43 1029.29 1028.91 1028.41 1027.90 1027.21 1026.69 1026.42 1025.56 1024.74 1024.32 1024.06 1023.82 1023.23 1022.50 1021.75 1021.08 1020.41 1019.49 1018.72 1017.84 1016.83 1015.81 1014.75 1013.44 1012.35 1011.70 1011.04 1010.45 1009.90 1009.28 1008.66 1008.02 1007.37 1007.02 1006.46
1028.65 1028.90 1028.98 1029.28 1029.45 1029.44 1029.28 1029.33 1029.10 1028.76 1028.24 1027.73 1027.29 1026.83 1026.21 1025.58 1024.82 1024.26 1024.00 1023.68 1023.18 1022.51 1021.78 1021.06 1020.25 1019.54 1018.88 1018.12 1017.24 1016.45 1015.44 1014.39 1013.35 1012.35 1011.77 1011.22 1010.64 1010.06 1009.47 1008.93 1008.44 1007.92 1007.20
1028.39 1028.61 1028.65 1028.96 1029.07 1029.03 1028.96 1029.03 1028.87 1028.60 1028.01 1027.54 1027.14 1026.66 1026.28 1025.77 1025.02 1024.46 1023.88 1023.35 1022.85 1022.23 1021.52 1020.81 1020.14 1019.45 1018.81 1018.10 1017.39 1016.79 1016.05 1015.12 1014.31 1013.44 1012.46 1011.84 1011.21 1010.63 1010.17 1009.74 1009.23 1008.60 1007.89
1028.10 1028.29 1028.45 1028.71 1028.69 1028.70 1028.69 1028.64 1028.55 1028.27 1027.75 1027.28 1026.78 1026.38 1025.97 1025.55 1025.02 1024.51 1023.90 1023.27 1022.63 1021.92 1021.18 1020.50 1019.82 1019.21 1018.60 1018.01 1017.40 1016.86 1016.22 1015.36 1014.60 1014.15 1013.29 1012.51 1011.72 1011.10 1010.70 1010.19 1009.65 1009.06 1008.40
1027.82 1028.02 1028.24 1028.27 1028.32 1028.35 1028.43 1028.40 1028.32 1028.04 1027.50 1027.04 1026.70 1026.28 1025.85 1025.37 1024.90 1024.40 1023.86 1023.19 1022.38 1021.62 1020.81 1020.15 1019.45 1018.67 1018.09 1017.66 1017.22 1016.79 1016.11 1015.36 1014.77 1014.47 1013.97 1013.16 1012.34 1011.73 1011.18 1010.50 1009.95 1009.39 1008.81
1027.57 1027.76 1027.98 1027.97 1028.15 1028.17 1028.31 1028.32 1028.12 1027.73 1027.27 1026.86 1026.60 1026.19 1025.72 1025.19 1024.65 1024.10 1023.56 1022.94 1022.16 1021.34 1020.56 1019.93 1019.15 1018.32 1017.51 1016.97 1016.56 1016.15 1015.66 1015.12 1014.74 1014.39 1014.04 1013.47 1012.63 1012.02 1011.41 1010.80 1010.30 1009.87 1009.28
1027.34 1027.57 1027.75 1027.80 1028.03 1028.12 1028.19 1028.06 1027.88 1027.57 1027.12 1026.70 1026.35 1025.84 1025.37 1024.84 1024.29 1023.73 1023.17 1022.57 1021.84 1021.09 1020.25 1019.59 1018.68 1017.83 1017.05 1016.42 1015.86 1015.31 1014.94 1014.61 1014.30 1014.00 1013.65 1013.16 1012.59 1012.05 1011.52 1011.11 1010.59 1009.95 1009.31
1027.10 1027.29 1027.29 1027.43 1027.66 1027.72 1027.83 1027.80 1027.62 1027.19 1026.76 1026.29 1025.83 1025.40 1024.98 1024.43 1023.89 1023.34 1022.77 1022.11 1021.42 1020.66 1019.95 1019.08 1018.21 1017.33 1016.55 1015.79 1015.10 1014.50 1014.10 1013.87 1013.66 1013.36 1013.17 1012.77 1012.31 1011.83 1011.50 1011.08 1010.53 1009.95 1009.29
Wind_Speed
9 8 7 5 5 5 5 5 5 5 6 6 7 7 7 6 7 7 7 6 6 7 8 9 10 10 8 8 8 8 9 9 11 12 12 14 11 10 9 5 5 5 4
6 6 6 5 5 5 5 6 6 5 4 5 7 9 8 9 9 8 8 7 9 10 11 11 13 9 12 11 9 12 10 10 10 16 12 11 17 11 8 6 6 6 5
6 6 5 5 5 5 5 5 5 5 6 7 8 9 9 9 9 6 10 9 11 11 12 14 13 14 14 10 11 11 11 9 10 11 11 10 11 12 7 5 5 5 4
6 6 5 5 4 4 4 5 6 6 6 7 7 7 7 8 8 11 10 12 12 12 12 13 14 15 13 16 14 14 11 12 6 8 8 10 10 11 9 9 5 4 5
6 6 4 4 4 5 5 6 6 6 6 6 7 7 6 9 8 12 11 12 13 15 14 14 14 20 30 24 15 14 14 12 7 9 9 9 10 11 9 6 8 4 5
6 5 4 5 5 5 6 6 6 6 6 6 6 6 9 8 19 19 19 13 14 15 16 16 16 24 21 28 28 30 24 17 17 12 9 10 13 12 12 12 10 5 3
5 4 4 4 5 5 5 5 6 6 6 6 6 7 9 8 19 22 23 13 13 14 16 16 16 14 23 18 22 28 26 27 27 16 14 12 13 14 14 14 10 8 7
4 4 4 4 4 4 5 5 5 4 6 5 6 8 8 8 20 21 25 13 13 14 16 17 18 20 19 23 21 20 20 18 17 13 15 14 14 13 16 14 13 11 6
4 3 2 3 3 3 4 5 4 5 5 6 8 9 9 9 19 22 22 14 14 17 16 17 19 22 29 33 23 22 22 21 20 29 29 29 27 27 23 13 13 9 8
3 3 2 3 3 3 4 5 4 4 7 7 9 8 11 10 17 23 20 11 14 14 18 19 28 28 36 36 24 22 23 22 16 15 13 17 19 16 24 17 13 11 9
4 3 3 3 3 3 4 3 4 6 7 7 8 6 8 11 12 22 25 13 11 14 14 17 16 36 40 41 40 23 25 23 18 15 13 11 11 12 12 12 14 12 10
4 3 3 2 2 3 4 4 5 6 7 8 8 7 6 8 16 18 25 24 25 14 16 15 19 40 40 39 31 30 26 18 11 10 10 10 10 10 11 12 12 11 9
4 3 1 2 3 4 4 4 5 6 6 7 7 8 8 8 8 20 22 26 23 15 12 24 37 37 37 26 34 24 14 2 2 5 7 8 9 10 11 6 5 6 6
4 2 1 2 2 3 3 4 2 4 6 7 8 8 9 9 9 10 12 12 19 15 17 17 20 24 22 20 20 19 12 2 2 4 6 8 7 3 2 2 2 3 3
4 2 1 2 4 3 4 3 4 5 6 7 6 6 8 9 10 21 21 14 14 15 17 12 13 15 16 17 17 15 14 14 11 5 3 3 1 0 1 2 3 4 4
3 2 1 1 2 3 3 4 7 10 14 15 15 10 8 16 24 26 25 25 25 23 11 10 12 13 14 14 15 14 13 16 13 11 10 10 9 7 4 2 0 1 3
4 3 1 1 2 3 2 2 7 8 12 13 15 16 18 19 23 24 23 23 21 17 8 9 10 11 12 13 13 13 10 11 12 11 10 10 10 9 10 7 5 3 1
4 3 2 1 2 3 2 3 3 4 7 7 10 14 15 19 22 21 22 17 9 9 7 9 10 10 11 12 12 12 12 10 11 10 10 9 9 8 7 8 7 7 6
4 2 2 1 2 3 2 3 4 4 4 6 7 6 8 18 20 18 18 6 8 9 9 9 8 10 10 10 11 11 12 12 8 8 8 8 8 7 8 8 9 11 9
3 3 1 1 2 2 2 3 4 4 4 5 6 6 7 10 8 8 6 6 6 7 8 9 9 9 9 10 9 10 11 11 12 7 7 7 7 7 8 8 8 8 8
3 2 2 2 2 2 2 3 3 4 4 5 6 6 9 8 8 8 9 8 8 8 9 8 9 9 9 9 9 9 10 9 9 11 8 8 7 7 7 7 7 8 8
3 2 2 2 2 2 2 3 3 4 4 5 6 7 8 6 7 8 9 9 9 9 8 9 9 9 8 9 9 8 9 9 7 8 10 9 8 7 7 7 7 7 8
3 3 2 2 2 2 2 3 3 4 4 5 6 7 7 7 7 8 9 9 9 10 9 9 9 10 9 8 8 8 9 9 6 7 9 9 8 7 7 7 7 8 8
3 3 3 2 2 2 3 3 4 5 5 5 4 6 6 7 8 8 8 9 9 10 9 10 10 13 11 10 8 8 8 8 7 8 9 9 8 7 7 7 7 9 8
3 3 3 3 3 3 3 4 4 4 4 5 5 5 7 7 8 8 8 8 9 10 11 12 10 13 14 15 15 15 13 13 9 8 7 8 9 8 7 6 8 8 8
3 3 3 2 2 3 3 4 5 4 5 5 5 5 6 7 8 8 8 9 9 11 13 10 13 17 18 14 14 15 12 11 9 9 7 7 8 6 5 7 9 7 8
Wind_Direction
78 77 75 65 58 52 48 24 16 7 1 1 350 344 341 341 341 333 328 331 348 340 339 329 322 314 308 310 306 301 295 295 292 295 307 292 265 243 247 224 214 212 207
92 87 77 67 56 50 39 18 12 358 353 350 356 354 346 341 336 334 338 338 337 330 326 321 311 310 302 294 288 284 279 279 284 289 289 283 297 268 238 216 221 219 207
102 95 75 59 51 47 34 11 348 359 7 4 356 345 339 336 327 344 340 342 332 322 318 312 306 310 298 294 291 286 279 274 277 274 286 288 272 288 251 218 204 221 225
104 91 74 46 41 41 25 3 10 10 8 353 340 330 328 332 329 346 345 328 322 320 319 316 308 300 301 301 292 296 296 285 292 293 290 296 293 277 268 253 229 218 219
97 82 64 37 32 28 18 20 18 2 353 334 329 318 323 339 342 337 333 331 325 316 311 309 303 300 301 304 299 295 293 282 274 279 283 287 285 284 255 264 243 202 228
93 79 46 40 24 14 26 25 3 349 335 324 323 322 337 339 335 335 336 327 323 315 312 309 306 305 299 298 298 297 292 288 279 263 255 266 276 278 281 262 251 229 245
96 71 49 36 17 21 35 9 349 333 320 314 317 323 331 332 332 334 333 326 319 314 308 307 305 302 304 294 291 291 287 280 281 275 277 260 269 272 276 279 229 222 221
101 73 52 27 11 47 20 350 325 315 309 313 316 326 325 328 329 332 332 325 315 311 306 304 302 298 292 294 292 286 279 271 271 265 259 260 257 267 275 267 267 237 238
106 84 54 22 38 39 5 337 323 317 313 318 326 321 326 317 328 335 334 325 318 313 309 307 301 298 297 298 293 285 278 270 267 267 266 267 265 262 264 272 267 248 227
127 114 68 45 68 22 350 332 315 308 317 322 316 319 313 325 329 335 335 325 321 316 316 310 306 302 302 297 286 276 270 264 260 260 258 263 267 265 272 264 248 238 229
129 109 84 53 27 5 333 323 319 319 320 305 303 299 324 325 329 333 336 332 322 320 317 313 310 311 312 309 301 279 258 260 249 248 252 253 254 255 262 256 236 226 219
125 102 78 56 3 356 336 323 326 319 313 314 313 326 326 323 328 329 333 333 333 322 317 314 311 317 322 318 317 312 302 260 235 230 235 242 247 249 251 254 224 209 211
126 101 65 27 5 350 341 330 325 315 311 314 326 328 326 329 325 326 325 334 333 326 319 319 319 321 327 328 332 327 336 30 178 217 236 246 245 248 246 228 206 188 174
141 124 55 12 1 330 337 323 287 309 316 320 326 327 327 327 331 327 332 332 334 335 330 322 317 324 330 337 351 357 349 331 227 228 238 250 244 217 141 134 135 163 210
140 125 46 25 341 323 329 309 320 308 307 321 316 319 323 328 328 335 335 335 338 336 332 325 331 338 343 347 353 356 1 7 7 359 360 348 336 281 186 172 201 202 207
145 137 100 6 303 310 299 307 294 316 328 328 327 330 328 332 332 334 336 335 344 339 335 330 333 336 340 343 345 348 4 5 5 14 19 20 15 12 13 14 315 207 218
152 157 143 2 310 297 306 309 310 321 325 328 331 332 335 334 337 340 340 342 339 343 332 332 332 334 337 338 343 343 355 359 359 14 15 14 11 10 7 4 357 341 294
147 141 151 235 262 281 285 283 275 283 308 320 325 329 334 335 337 342 342 344 326 335 331 328 331 329 336 335 338 343 344 359 3 2 5 6 3 3 2 357 354 354 346
156 181 174 239 256 267 272 288 287 284 276 297 311 315 314 333 333 336 339 328 328 329 329 324 327 323 330 328 333 336 339 339 347 352 354 356 356 359 358 355 356 349 337
162 177 164 220 256 261 267 279 287 281 293 303 312 313 320 329 331 330 324 317 314 318 322 320 321 318 322 320 327 331 331 336 336 343 346 347 346 351 357 352 350 341 336
172 196 194 250 250 255 260 278 275 278 296 306 305 305 311 325 320 323 321 319 317 314 311 311 313 313 311 312 320 323 322 323 337 341 340 339 338 343 348 343 337 338 336
176 202 190 221 242 253 273 271 278 279 290 306 313 311 313 314 318 318 316 315 312 307 305 304 302 302 305 308 307 311 309 312 327 338 333 334 334 343 337 336 335 334 336
180 187 215 231 231 269 283 283 281 279 291 302 306 309 317 313 312 312 309 308 309 312 309 310 304 298 294 294 296 297 293 303 321 328 325 324 329 336 331 331 335 336 335
184 188 222 208 243 264 271 275 276 280 291 298 288 298 302 306 306 301 301 304 307 305 308 309 304 299 300 294 288 286 287 293 298 303 311 308 312 323 325 330 326 325 320
178 187 201 208 244 256 279 276 278 278 282 281 278 288 302 302 303 303 299 300 301 305 309 308 302 302 298 302 297 289 284 283 278 286 292 291 293 307 312 314 315 315 320
195 209 208 203 242 262 262 272 273 273 284 284 269 270 286 296 298 296 297 300 304 309 305 303 301 301 303 298 296 297 291 285 281 276 277 283 279 283 294 301 305 314 318